OBJECT D

Satellite information

Favourite Embed

Satellite Type and Status

UNKNOWNIN ORBIT

Key statistics

Satellite OBJECT D at a glance.

Uptime

476

Days in orbit

Revolutions

≈ 15.4

Per day

Orbit

SSO

Sun Synchronous Orbit

Inclination

97.6

Latest

Satellite identification and parameters

Extended collection of information and parameters for OBJECT D.

Object identification

Identified? True

Debris? False

Object name: OBJECT D

International designator: 2024-095D

Object number (NORAD): 59813

Object ID (CCSDS): 59813

Country: PEOPLES REPUBLIC OF CHINA (PRC)

Current information (Y/N): Y

RCS size: MEDIUM

Orbital parameters

Period: 93.352 minutes

Inclination: 97.5583 deg

SMA: 6816.741 km

Apoapsis: 441.661 km

Periapsis: 435.552 km

RAAN: 339.488 deg

Eccentricy: 0.00044808

Argument of periapsis: 59.1974 deg

Mean anomaly: 300.9714 deg

Mean motion: 15.42543964 rev/day

Mean motion (dot): 0.00041392 rev/day2

B* drag term: 0.00095155122 1/REarth

Two-line elements (TLE)

Creation date: Sept. 8, 2025, 6:18 p.m.

Reference frame: TEME

Reference center: EARTH

Epoch: Sept. 8, 2025, 3:23 p.m. UTC

TLE line 0: 0 OBJECT D

TLE line 1: 1 59813U 24095D 25251.64164442 .00041392 00000-0 95155-3 0 9999

TLE line 2: 2 59813 97.5583 339.4880 0004481 59.1974 300.9714 15.42543964 72514

Live tracking on map

Real-time ground track for satellite OBJECT D.

In-orbit conjunctions

There are no conjunctions computed for OBJECT D, at the moment. Check back to stay up to date, as we update our databases every day.

Go to all conjunctions

Associated space launch

Carried 4 satellites to SSO: * Wuhan-1 * Chutian 001 * Tianyan 22 * Lingque-3 01

OBJECT D was lifted into orbit during the mission ‘Kuaizhou-11 | Wuhan-1 and others’, on board a Kuaizhou-11 space rocket.

The launch took place on May 21, 2024, 4:15 a.m. from Launch Area 95A.

For more information about the launch, click the button.

Launch to space Kuaizhou-11 | Wuhan-1 and others
Kuaizhou-11 | Wuhan-1 and others

Agency: N/A

Status: Launch Successful

Launch date: May 21, 2024, 4:15 a.m. UTC

Rocket: Kuaizhou-11

Launch pad: Launch Area 95A

Location: Jiuquan Satellite Launch Center, People's Republic of China

...

Latest news about this satellite

There are no fresh news available about this satellite. Check back as we update our databases every day.


Newsletter sign-up

Weekly statistics, charts and insights to help you stay on top of the space industry.